Wind_Speed
25 25 26 27 28 29 30 31 32 33 33 35 37 38 39 40 41 43 45 46 48 49 49 49 49 49 49 48 48 48 47 47 46 46 47 47 46 45 44 43 41 40 40
25 26 27 28 30 30 32 33 34 35 36 37 39 41 42 44 45 46 47 48 50 51 53 54 54 54 53 52 51 51 50 50 50 51 51 51 50 50 50 49 48 46 45
26 27 29 30 31 33 34 36 37 39 40 41 43 44 45 47 48 49 50 51 52 53 55 56 57 57 57 56 54 53 53 53 54 54 54 54 54 54 54 54 53 52 50
28 30 32 33 35 36 38 40 41 43 45 46 48 49 50 51 51 53 54 55 57 58 58 59 60 60 60 59 58 56 56 56 57 57 58 58 57 57 57 57 57 56 55
32 33 35 37 39 41 42 44 45 47 48 50 51 53 54 55 56 57 58 60 61 63 64 65 66 66 66 65 65 64 62 61 61 61 62 63 63 63 62 61 60 59 58
35 38 40 42 44 46 47 49 50 52 53 54 55 55 56 57 59 59 59 61 63 64 66 67 68 69 70 71 72 71 69 67 67 67 67 68 68 68 67 66 64 63 61
40 42 44 47 48 50 52 53 54 55 56 57 57 57 57 58 58 58 58 58 58 59 61 63 65 66 68 71 73 73 71 70 70 69 69 69 70 71 72 72 69 67 65
45 48 50 52 53 55 56 56 57 58 59 58 58 57 56 55 55 54 53 53 54 55 56 57 58 60 62 63 64 66 67 67 66 66 67 69 71 73 74 75 74 71 69
50 53 56 57 58 58 59 60 60 61 60 58 57 55 53 50 47 45 45 47 49 51 52 54 55 56 56 56 56 56 58 60 61 62 64 67 70 73 75 76 76 74 71
55 58 61 61 61 61 61 62 63 62 59 56 54 52 49 46 45 44 43 45 47 49 50 51 52 53 53 52 52 53 54 55 56 57 59 61 64 67 71 73 74 73 71
59 63 65 64 63 63 63 63 61 57 53 50 48 46 44 44 45 47 47 47 49 52 52 52 52 51 51 50 50 50 50 51 50 50 51 52 54 58 62 66 68 70 70
64 67 66 64 63 63 61 57 53 48 44 42 42 43 43 45 47 50 51 51 52 53 55 54 53 51 49 48 48 47 47 46 45 44 44 45 46 48 53 58 61 64 67
66 66 63 62 61 58 53 48 43 40 39 40 41 43 45 48 51 53 54 55 55 55 55 54 54 52 49 47 46 44 43 43 42 40 40 39 39 40 43 48 52 56 59
64 62 60 58 54 50 46 42 40 39 39 41 43 46 49 53 55 57 58 58 57 55 54 52 52 52 50 47 44 42 41 39 38 37 37 36 36 35 37 40 45 48 51
60 58 56 52 49 46 43 41 41 41 42 45 48 51 54 57 60 61 61 61 59 57 53 50 49 48 48 46 43 39 37 36 34 34 34 34 35 35 36 37 40 43 47
56 54 51 49 46 44 43 43 44 45 48 51 54 57 60 61 62 62 61 60 59 57 54 48 44 43 44 43 40 36 33 32 31 32 32 33 34 34 35 36 38 41 43
52 50 48 46 45 44 45 46 49 51 54 57 60 61 63 63 62 60 58 56 55 54 51 44 40 39 40 40 37 32 29 28 28 29 30 32 33 33 34 36 37 39 42
49 48 46 45 45 46 48 51 54 56 59 61 63 63 63 62 59 57 54 52 50 48 44 39 36 35 36 35 31 28 25 25 25 27 29 31 33 33 34 35 37 38 40
47 46 45 46 47 50 52 55 57 59 61 63 64 63 61 58 55 53 50 47 44 41 39 36 32 31 31 30 26 23 22 22 23 25 27 29 31 33 34 35 36 38 40
46 46 47 48 51 53 56 58 59 60 61 62 61 58 55 52 49 46 43 41 38 36 34 31 27 26 26 25 21 20 20 21 22 23 25 28 30 32 34 35 37 38 39
46 47 49 52 55 57 58 59 60 60 59 57 53 50 48 45 42 39 37 34 32 30 28 25 22 21 21 20 18 18 18 19 20 22 23 25 27 29 32 34 36 37 39
48 50 53 55 57 58 58 58 58 56 54 50 46 44 42 39 35 31 28 27 26 24 22 20 17 17 16 16 16 16 16 17 18 19 20 22 24 26 28 29 30 32 33
51 53 54 55 56 56 56 54 53 51 48 44 40 38 35 32 27 23 22 22 22 19 17 15 14 13 12 12 12 12 13 13 14 14 16 18 20 21 20 20 22 24 26
52 53 54 54 54 53 52 50 48 45 41 38 35 32 30 27 23 21 21 20 17 14 12 11 11 10 9 8 8 8 9 9 10 10 11 12 12 12 13 14 14 15 17
53 53 53 52 51 49 47 44 41 38 36 35 33 30 26 23 20 19 17 15 12 9 9 11 10 8 7 7 6 6 6 5 5 5 6 5 5 8 9 10 8 5 5
52 51 51 49 47 44 42 39 36 35 35 33 30 26 22 19 17 15 13 10 8 9 10 11 10 8 7 7 7 6 5 3 1 0 2 4 7 10 9 8 7 6 10
Wind_Direction
301 301 301 302 303 303 304 303 300 297 295 294 293 290 287 286 285 282 280 277 275 274 273 272 272 272 272 271 270 269 268 267 266 265 263 262 260 258 256 254 252 251 251
307 308 309 308 307 307 306 305 304 301 298 297 295 293 291 289 287 285 283 279 276 274 273 272 272 272 272 271 269 267 267 266 265 264 263 262 261 259 257 255 253 250 249
316 314 313 311 309 307 305 304 303 301 298 296 294 292 291 290 287 286 284 281 278 276 274 273 272 271 271 269 268 266 264 263 262 262 261 261 260 259 258 257 254 252 250
319 317 314 312 309 307 305 302 301 299 298 296 294 293 292 290 288 286 285 282 280 278 276 275 274 273 271 269 268 266 264 263 261 260 259 259 259 258 257 256 255 253 251
321 318 315 312 310 307 305 302 300 298 297 295 294 292 291 290 288 286 284 282 281 280 278 276 276 275 274 272 271 268 265 262 260 259 259 258 257 256 256 255 254 253 252
324 322 319 315 312 309 306 303 301 299 297 295 294 292 291 289 287 286 284 283 281 280 279 276 275 274 274 272 271 270 268 265 263 261 259 257 256 254 253 253 252 251 251
327 325 321 317 313 310 306 303 301 299 297 295 293 291 291 289 287 286 285 284 282 281 280 278 276 275 274 273 271 270 269 268 266 264 261 258 256 254 251 250 249 249 249
326 324 321 317 313 310 306 303 301 298 296 294 292 291 290 288 287 286 285 285 285 284 283 281 279 277 276 274 273 270 269 268 267 266 264 262 258 255 252 248 247 246 247
323 322 319 316 312 309 306 303 301 298 295 293 292 292 292 289 287 286 287 288 288 288 287 285 282 280 278 276 274 271 269 268 267 267 267 265 261 257 253 249 245 244 244
319 319 317 315 312 309 306 304 302 299 296 293 292 292 291 289 288 287 289 291 291 291 290 289 285 282 280 277 275 272 271 270 268 268 268 266 263 258 252 247 244 242 241
317 317 316 314 312 310 308 305 302 299 296 294 292 291 290 290 290 291 292 293 294 294 293 291 288 283 279 276 274 273 272 269 268 268 267 265 262 256 250 244 242 240 239
316 316 315 313 311 310 307 305 302 300 297 295 293 292 291 291 292 293 294 295 295 295 295 293 291 286 280 275 273 273 271 268 266 266 265 263 259 254 249 243 239 239 238
314 314 312 311 310 309 307 305 304 302 299 297 295 293 293 293 293 294 294 294 295 294 294 293 291 287 281 275 272 272 270 266 264 263 261 259 255 251 246 241 238 238 237
311 311 311 311 310 309 308 306 305 302 300 297 296 295 294 294 295 295 294 294 293 293 293 292 289 285 280 274 271 271 269 266 262 259 257 255 252 247 243 240 237 237 237
310 311 312 311 310 308 306 305 303 301 299 298 297 296 296 296 295 295 294 293 292 291 291 290 286 282 277 273 270 270 268 264 259 256 254 252 250 248 244 241 239 238 237
311 312 311 309 307 305 304 302 301 300 299 299 298 297 296 296 295 294 293 292 291 291 291 290 283 277 272 269 268 269 267 262 256 253 251 250 248 247 245 243 242 241 241
312 312 310 308 306 304 303 302 302 301 300 299 298 297 296 295 294 293 291 290 289 290 290 288 281 273 267 265 265 266 263 256 251 249 247 247 246 245 245 245 246 246 246
311 310 308 306 305 305 305 304 304 303 302 301 299 298 297 296 294 291 290 289 288 289 288 285 279 270 263 261 262 262 257 250 249 249 247 246 245 245 246 248 249 249 249
310 309 308 307 307 307 307 306 305 304 303 302 301 300 298 296 293 291 289 287 286 286 285 283 275 264 258 257 257 255 251 249 250 249 249 248 247 248 249 251 251 251 250
309 309 309 309 310 309 309 308 307 306 304 304 303 302 300 297 294 291 288 286 285 285 284 280 269 258 253 252 249 248 249 250 251 252 254 252 251 251 252 254 255 255 254
310 311 312 312 312 311 310 309 308 307 307 307 307 306 303 301 297 292 288 285 283 283 281 274 264 251 247 245 243 245 247 251 253 256 257 255 255 257 259 260 259 258 256
314 315 315 314 313 312 311 310 310 310 309 310 310 308 306 304 300 294 289 286 283 280 275 268 254 241 239 239 240 241 245 250 254 256 258 260 261 263 265 266 264 262 258
316 316 315 314 312 312 312 312 312 311 311 311 311 309 308 306 301 295 291 290 285 275 266 252 235 230 230 232 232 235 241 246 250 256 262 267 271 271 273 276 274 269 259
317 316 315 314 314 314 314 314 313 312 312 313 312 310 309 305 299 295 294 290 282 266 245 224 213 212 213 215 216 223 230 235 245 258 270 278 284 288 294 299 291 279 257
316 315 315 316 317 317 317 316 315 315 314 314 312 309 306 302 297 295 292 282 268 237 207 194 186 187 191 194 198 200 205 218 242 266 285 298 330 341 333 326 322 304 232
317 317 318 320 321 320 319 319 318 317 317 316 313 308 304 299 294 292 284 264 234 195 178 169 169 172 171 170 166 161 163 175 209 343 50 54 33 19 14 18 37 82 131
Height
5841 5839 5837 5834 5832 5830 5827 5825 5823 5821 5818 5816 5814 5811 5809 5807 5806 5804 5803 5801 5800 5799 5798 5797 5797 5797 5797 5797 5798 5798 5799 5799 5800 5802 5803 5804 5805 5806 5808 5810 5812 5815 5818
5836 5834 5831 5829 5826 5824 5821 5819 5817 5814 5811 5808 5805 5803 5800 5797 5795 5793 5791 5789 5788 5787 5786 5785 5785 5784 5785 5785 5785 5786 5787 5788 5789 5790 5791 5792 5794 5795 5797 5799 5802 5805 5808
5830 5828 5826 5823 5821 5818 5815 5812 5810 5807 5803 5800 5796 5793 5789 5786 5783 5780 5778 5776 5775 5773 5772 5771 5771 5771 5771 5771 5772 5773 5774 5775 5776 5778 5779 5780 5782 5783 5785 5788 5790 5793 5797
5825 5822 5820 5817 5814 5811 5808 5804 5801 5797 5794 5790 5786 5781 5778 5774 5770 5767 5764 5762 5760 5758 5756 5755 5755 5755 5755 5755 5756 5758 5759 5761 5762 5763 5765 5766 5768 5770 5772 5774 5777 5780 5784
5818 5815 5812 5809 5805 5801 5797 5794 5790 5785 5781 5777 5773 5769 5764 5760 5756 5752 5749 5746 5744 5742 5740 5738 5737 5736 5736 5736 5737 5739 5741 5743 5745 5747 5749 5751 5753 5755 5757 5760 5763 5766 5770
5810 5806 5802 5798 5794 5789 5785 5780 5775 5771 5767 5763 5758 5754 5750 5745 5740 5736 5733 5730 5727 5724 5722 5720 5718 5717 5716 5716 5717 5718 5720 5722 5725 5727 5730 5732 5734 5737 5740 5743 5747 5750 5754
5800 5796 5792 5787 5782 5777 5772 5767 5762 5757 5752 5747 5743 5739 5735 5729 5724 5720 5717 5713 5710 5707 5703 5701 5699 5697 5696 5695 5695 5696 5698 5700 5703 5705 5708 5711 5714 5716 5720 5724 5728 5733 5737
5790 5785 5781 5775 5770 5764 5758 5753 5747 5742 5736 5731 5727 5722 5720 5716 5710 5705 5701 5698 5694 5690 5687 5683 5680 5678 5677 5675 5675 5676 5677 5679 5681 5683 5685 5687 5691 5694 5698 5703 5708 5713 5719
5780 5774 5769 5763 5757 5751 5744 5738 5732 5726 5720 5715 5710 5705 5702 5699 5695 5693 5689 5685 5680 5675 5671 5667 5664 5662 5660 5658 5658 5658 5658 5659 5661 5662 5663 5664 5666 5669 5674 5679 5686 5693 5700
5769 5763 5757 5750 5743 5736 5729 5722 5715 5708 5703 5698 5694 5689 5686 5683 5680 5679 5678 5673 5667 5662 5657 5653 5649 5646 5643 5642 5641 5641 5641 5641 5642 5642 5643 5643 5643 5645 5649 5656 5663 5672 5680
5758 5751 5743 5735 5727 5720 5712 5704 5697 5691 5686 5682 5679 5676 5673 5670 5666 5664 5662 5659 5654 5647 5642 5638 5634 5631 5628 5626 5625 5625 5624 5624 5625 5625 5625 5624 5624 5625 5628 5635 5643 5652 5661
5744 5736 5728 5720 5712 5704 5697 5689 5682 5676 5672 5669 5666 5663 5660 5658 5654 5650 5647 5644 5640 5633 5626 5621 5617 5615 5613 5611 5610 5610 5609 5608 5609 5609 5608 5608 5608 5609 5612 5618 5626 5635 5643
5731 5723 5714 5706 5698 5690 5683 5676 5670 5664 5661 5657 5655 5651 5648 5644 5640 5636 5632 5628 5625 5620 5612 5606 5601 5598 5597 5596 5595 5594 5594 5593 5594 5594 5594 5595 5595 5597 5600 5605 5612 5620 5627
5720 5710 5702 5693 5685 5677 5670 5664 5659 5654 5650 5647 5643 5639 5635 5630 5625 5620 5615 5612 5609 5605 5599 5592 5586 5583 5581 5580 5580 5580 5580 5580 5580 5581 5582 5583 5585 5587 5590 5594 5600 5606 5613
5707 5698 5689 5681 5673 5666 5660 5654 5649 5645 5640 5636 5631 5626 5620 5615 5609 5603 5598 5593 5590 5588 5586 5578 5572 5568 5566 5566 5566 5566 5567 5567 5568 5569 5571 5572 5574 5577 5580 5584 5589 5594 5600
5693 5685 5677 5670 5662 5656 5650 5645 5639 5634 5628 5623 5617 5611 5604 5598 5592 5585 5580 5575 5571 5569 5568 5564 5559 5555 5552 5552 5553 5554 5555 5555 5556 5558 5560 5562 5564 5566 5570 5573 5577 5582 5587
5680 5672 5665 5658 5652 5645 5640 5634 5627 5621 5615 5608 5601 5594 5588 5581 5575 5568 5563 5559 5555 5551 5550 5549 5545 5542 5540 5540 5541 5543 5544 5545 5546 5548 5550 5552 5554 5556 5559 5562 5566 5569 5573
5668 5661 5654 5647 5640 5634 5628 5621 5614 5606 5599 5591 5583 5576 5569 5563 5557 5551 5547 5543 5539 5536 5534 5534 5533 5530 5529 5529 5531 5533 5534 5536 5537 5539 5541 5542 5544 5547 5549 5551 5554 5557 5560
5656 5649 5642 5635 5628 5622 5614 5607 5599 5590 5582 5573 5565 5558 5551 5545 5540 5535 5531 5528 5525 5523 5521 5521 5520 5519 5519 5520 5523 5524 5526 5528 5529 5531 5532 5533 5535 5537 5539 5540 5542 5544 5546
5645 5637 5630 5622 5615 5608 5600 5592 5583 5574 5565 5556 5548 5540 5534 5528 5524 5520 5517 5514 5513 5511 5509 5508 5509 5510 5511 5512 5515 5517 5519 5520 5522 5523 5524 5525 5526 5527 5528 5529 5530 5531 5533
5633 5625 5617 5609 5601 5593 5585 5576 5567 5558 5549 5541 5533 5525 5519 5514 5510 5507 5504 5503 5501 5500 5499 5499 5500 5502 5504 5506 5508 5511 5513 5514 5515 5516 5517 5517 5518 5518 5518 5518 5517 5517 5518
5621 5613 5605 5596 5588 5579 5570 5561 5552 5543 5534 5527 5520 5513 5507 5502 5498 5496 5494 5493 5492 5492 5492 5492 5494 5496 5498 5501 5503 5505 5507 5509 5509 5510 5510 5510 5510 5509 5508 5506 5505 5503 5503
5609 5601 5592 5584 5575 5566 5557 5547 5538 5529 5522 5515 5509 5503 5498 5493 5490 5488 5487 5486 5485 5485 5485 5487 5489 5491 5494 5496 5499 5501 5502 5504 5505 5505 5505 5504 5503 5501 5499 5497 5494 5491 5490
5598 5589 5581 5572 5563 5553 5544 5535 5526 5518 5511 5505 5500 5495 5490 5486 5484 5483 5482 5480 5479 5480 5481 5483 5486 5489 5492 5494 5496 5498 5499 5501 5501 5502 5501 5500 5498 5495 5492 5489 5485 5481 5479
5587 5578 5569 5560 5551 5542 5533 5524 5517 5509 5503 5497 5492 5487 5483 5480 5478 5477 5476 5475 5476 5477 5479 5482 5485 5488 5490 5492 5494 5496 5498 5499 5500 5499 5498 5497 5495 5492 5489 5485 5480 5477 5474
5576 5567 5558 5549 5541 5532 5523 5515 5508 5502 5496 5489 5484 5480 5477 5475 5473 5472 5472 5472 5474 5476 5479 5482 5485 5487 5490 5492 5494 5496 5498 5499 5499 5499 5498 5497 5495 5491 5488 5484 5480 5478 5477